| time (UTC) | temp C | wind direction | speed KPH | gust KPH | rain 1hr cm | rain 24hr cm | rain mn cm | humidity % | barometer mb |
| 20260502123036 | 1 | 326 | 0.0 | 0.0 | 0.00 | 0.00 | 0.00 | 88 | 1021.0 |
| 20260502121627 | 0 | 326 | 0.0 | 0.0 | 0.00 | 0.00 | 0.00 | 88 | 1020.9 |
| 20260502114521 | -2 | 326 | 0.0 | 0.0 | 0.00 | 0.00 | 0.00 | 89 | 1020.9 |
| 20260502113020 | -2 | 326 | 0.0 | 0.0 | 0.00 | 0.00 | 0.00 | 89 | 1020.8 |
| 20260502111519 | -3 | 326 | 0.0 | 0.0 | 0.00 | 0.00 | 0.00 | 89 | 1020.7 |
| 20260502110020 | -3 | 326 | 0.0 | 0.0 | 0.00 | 0.00 | 0.00 | 88 | 1020.6 |
| 20260502104517 | -3 | 326 | 0.0 | 0.0 | 0.00 | 0.00 | 0.00 | 88 | 1020.6 |
| 20260502103015 | -2 | 326 | 0.0 | 0.0 | 0.00 | 0.00 | 0.00 | 88 | 1020.5 |
| 20260502101513 | -2 | 326 | 0.0 | 0.0 | 0.00 | 0.00 | 0.00 | 88 | 1020.5 |
| 20260502091508 | -2 | 326 | 0.0 | 0.0 | 0.00 | 0.00 | 0.00 | 88 | 1020.1 |
| 20260502070054 | -1 | 326 | 0.0 | 0.0 | 0.00 | 0.00 | 0.00 | 84 | 1019.8 |
| 20260502064603 | -1 | 326 | 0.0 | 0.0 | 0.00 | 0.00 | 0.00 | 84 | 1019.9 |
| 20260502063051 | -1 | 326 | 0.0 | 0.0 | 0.00 | 0.00 | 0.00 | 84 | 1019.9 |
| 20260502061604 | 0 | 326 | 0.0 | 0.0 | 0.00 | 0.00 | 0.00 | 83 | 1019.8 |
| 20260502060045 | -17 | 0.0 | 0.0 | 0.00 | 0.00 | 0.00 | 1019.7 | ||
| 20260502054541 | -17 | 0.0 | 0.0 | 0.00 | 0.00 | 0.00 | 1019.6 | ||
| 20260502053037 | -17 | 0.0 | 0.0 | 0.00 | 0.00 | 0.00 | 1019.6 | ||
| 20260502051533 | -17 | 0.0 | 0.0 | 0.00 | 0.00 | 0.00 | 1019.5 | ||
| 20260502050028 | -17 | 0.0 | 0.0 | 0.00 | 0.00 | 0.00 | 1019.4 | ||
| 20260502044523 | -17 | 0.0 | 0.0 | 0.00 | 0.00 | 0.00 | 1019.4 | ||
| 20260502043022 | -17 | 0.0 | 0.0 | 0.00 | 0.00 | 0.00 | 1019.3 | ||
| 20260502041523 | -17 | 0.0 | 0.0 | 0.00 | 0.00 | 0.00 | 1019.3 | ||
| 20260502040014 | -17 | 0.0 | 0.0 | 0.00 | 0.00 | 0.00 | 1019.2 | ||
| 20260502034508 | -17 | 0.0 | 0.0 | 0.00 | 0.00 | 0.00 | 1019.2 | ||
| 20260502033003 | -17 | 0.0 | 0.0 | 0.00 | 0.00 | 0.00 | 1019.1 | ||
| 20260502031601 | -17 | 0.0 | 0.0 | 0.00 | 0.00 | 0.00 | 1019.0 | ||
| 20260502030106 | 5 | 326 | 0.0 | 0.0 | 0.00 | 0.00 | 0.00 | 57 | 1019.0 |
| 20260502024603 | 6 | 326 | 0.0 | 0.0 | 0.00 | 0.00 | 0.00 | 55 | 1018.8 |
| 20260502023053 | 7 | 326 | 0.0 | 0.0 | 0.00 | 0.00 | 0.00 | 51 | 1018.7 |
| 20260502021552 | 8 | 326 | 0.0 | 0.0 | 0.00 | 0.00 | 0.00 | 48 | 1018.4 |
| 20260502020049 | 9 | 327 | 0.0 | 1.6 | 0.00 | 0.00 | 0.00 | 45 | 1018.2 |
| 20260502014548 | 10 | 326 | 0.0 | 6.4 | 0.00 | 0.00 | 0.00 | 42 | 1017.9 |
| 20260502013047 | 10 | 342 | 0.0 | 6.4 | 0.00 | 0.00 | 0.00 | 40 | 1017.8 |
| 20260502011548 | 11 | 297 | 1.6 | 6.4 | 0.00 | 0.00 | 0.00 | 39 | 1017.6 |
| 20260502010046 | 11 | 51 | 3.2 | 12.9 | 0.00 | 0.00 | 0.00 | 37 | 1017.4 |
| 20260502004545 | 12 | 296 | 1.6 | 12.9 | 0.00 | 0.00 | 0.00 | 38 | 1017.3 |
| 20260502003045 | 12 | 302 | 1.6 | 14.5 | 0.00 | 0.00 | 0.00 | 35 | 1017.2 |
| 20260502001545 | 12 | 54 | 4.8 | 14.5 | 0.00 | 0.00 | 0.00 | 35 | 1017.1 |
| 20260502000045 | 12 | 290 | 4.8 | 19.3 | 0.00 | 0.00 | 0.00 | 34 | 1017.1 |
| 20260501234546 | 13 | 19 | 6.4 | 12.9 | 0.00 | 0.00 | 0.00 | 34 | 1017.1 |
| 20260501233043 | 13 | 310 | 3.2 | 17.7 | 0.00 | 0.00 | 0.00 | 33 | 1017.1 |
| 20260501231543 | 13 | 33 | 3.2 | 16.1 | 0.00 | 0.00 | 0.00 | 34 | 1017.1 |
| 20260501230042 | 13 | 331 | 3.2 | 16.1 | 0.00 | 0.00 | 0.00 | 33 | 1017.0 |
| 20260501224542 | 14 | 331 | 3.2 | 14.5 | 0.00 | 0.00 | 0.00 | 32 | 1016.8 |
| 20260501223041 | 14 | 47 | 3.2 | 16.1 | 0.00 | 0.00 | 0.00 | 33 | 1016.8 |
| 20260501221540 | 14 | 328 | 3.2 | 16.1 | 0.00 | 0.00 | 0.00 | 33 | 1016.8 |
| 20260501220043 | 14 | 10 | 6.4 | 22.5 | 0.00 | 0.00 | 0.00 | 31 | 1016.8 |
| 20260501214550 | 14 | 266 | 6.4 | 17.7 | 0.00 | 0.00 | 0.00 | 34 | 1016.8 |
| 20260501213037 | 15 | 312 | 4.8 | 16.1 | 0.00 | 0.00 | 0.00 | 38 | 1016.8 |
| 20260501211539 | 15 | 13 | 3.2 | 22.5 | 0.00 | 0.00 | 0.00 | 36 | 1017.0 |
| 20260501210042 | 15 | 299 | 4.8 | 14.5 | 0.00 | 0.00 | 0.00 | 41 | 1017.0 |
| 20260501204601 | 15 | 339 | 3.2 | 12.9 | 0.00 | 0.00 | 0.00 | 38 | 1017.1 |
| 20260501203033 | 14 | 282 | 4.8 | 24.1 | 0.00 | 0.00 | 0.00 | 36 | 1017.3 |
| 20260501201532 | 14 | 6 | 4.8 | 17.7 | 0.00 | 0.00 | 0.00 | 39 | 1017.2 |
| 20260501200030 | 14 | 324 | 8.0 | 20.9 | 0.00 | 0.00 | 0.00 | 40 | 1017.3 |
| 20260501194528 | 14 | 79 | 8.0 | 20.9 | 0.00 | 0.00 | 0.00 | 43 | 1017.4 |
| 20260501193029 | 14 | 239 | 6.4 | 16.1 | 0.00 | 0.00 | 0.00 | 39 | 1017.4 |
| 20260501191527 | 14 | 15 | 1.6 | 9.7 | 0.00 | 0.00 | 0.00 | 45 | 1017.4 |
| 20260501190025 | 13 | 26 | 3.2 | 20.9 | 0.00 | 0.00 | 0.00 | 44 | 1017.4 |
| 20260501184526 | 13 | 51 | 4.8 | 16.1 | 0.00 | 0.00 | 0.00 | 41 | 1017.6 |
| 20260501183023 | 13 | 71 | 6.4 | 17.7 | 0.00 | 0.00 | 0.00 | 45 | 1017.5 |
| 20260501181520 | 13 | 308 | 1.6 | 16.1 | 0.00 | 0.00 | 0.00 | 50 | 1017.5 |
| 20260501180019 | 13 | 37 | 4.8 | 20.9 | 0.00 | 0.00 | 0.00 | 46 | 1017.8 |
| 20260501174534 | 13 | 320 | 1.6 | 20.9 | 0.00 | 0.00 | 0.00 | 50 | 1017.9 |
| 20260501173014 | 12 | 306 | 4.8 | 19.3 | 0.00 | 0.00 | 0.00 | 50 | 1018.0 |
| 20260501171513 | 12 | 15 | 4.8 | 25.7 | 0.00 | 0.00 | 0.00 | 53 | 1018.0 |
| 20260501170010 | 12 | 295 | 8.0 | 17.7 | 0.00 | 0.00 | 0.00 | 53 | 1018.0 |
| 20260501164509 | 12 | 220 | 6.4 | 17.7 | 0.00 | 0.00 | 0.00 | 53 | 1017.9 |
| 20260501163006 | 11 | 283 | 4.8 | 19.3 | 0.00 | 0.00 | 0.00 | 54 | 1017.9 |
| 20260501161507 | 11 | 37 | 6.4 | 19.3 | 0.00 | 0.00 | 0.00 | 58 | 1017.8 |
| 20260501160009 | 11 | 291 | 4.8 | 17.7 | 0.00 | 0.00 | 0.00 | 58 | 1017.8 |
| 20260501154506 | 11 | 43 | 6.4 | 17.7 | 0.00 | 0.00 | 0.00 | 57 | 1017.7 |
| 20260501153006 | 11 | 299 | 4.8 | 11.3 | 0.00 | 0.00 | 0.00 | 59 | 1017.6 |
| 20260501151600 | 11 | 23 | 4.8 | 11.3 | 0.00 | 0.00 | 0.00 | 57 | 1017.5 |
| 20260501150056 | 10 | 337 | 3.2 | 11.3 | 0.00 | 0.00 | 0.00 | 60 | 1017.5 |
| 20260501144558 | 10 | 276 | 1.6 | 9.7 | 0.00 | 0.00 | 0.00 | 63 | 1017.5 |
| 20260501143050 | 9 | 343 | 1.6 | 11.3 | 0.00 | 0.00 | 0.00 | 65 | 1017.6 |